Location: Unspecified
(22.6800°N, 112.2000°E)
Time: 10:34:13
(UTC+08:00)

S-56A Canister/Altair - Pass Details

Date: 25 July 2021
Orbit: 632 x 2500 km, 38.9° (Epoch: 27 September)

Event Time Altitude Azimuth Distance (km) Brightness Sun altitude
Rises 21:12:58 0° 297° (WNW) 6,107 13.5 -24.6°
Reaches altitude 10° 21:17:38 10° 305° (NW) 4,966 12.7 -25.4°
Maximum altitude 21:30:14 41° 11° (N) 2,589 10.3 -27.7°
Enters shadow 21:36:53 20° 68° (ENE) 3,090 10.3 -28.9°
Drops below altitude 10° 21:39:20 10° 78° (ENE) 3,619 - -29.4°
Sets 21:42:09 0° 86° (E) 4,352 - -29.8°
